Regional Weather Roundup
Issued by NWS

Home | Current Version | Previous Version | Graphics & Text | Print | Product List | Glossary On
Versions: 1 2 3 4 5 6 7 8 9 10 11 12 13 14 15 16 17 18 19 20 21 22 23 24 25 26 27 28 29 30 31 32 33 34 35 36 37 38 39 40 41 42 43 44 45 46 47 48 49 50
000
ASUS45 KTFX 290604
RWRMT
MONTANA HOURLY WEATHER ROUNDUP
NATIONAL WEATHER SERVICE GREAT FALLS MT
1104 PM MST SUN DEC 28 2014

NOTE: "FAIR" INDICATES FEW OR NO CLOUDS BELOW 12000 FEET WITH NO
SIGNIFICANT WEATHER AND/OR OBSTRUCTIONS TO VISIBILITY.

* THESE STATIONS ARE NOT UNDER NWS QUALITY CONTROL. THEY DO NOT
   REPORT WEATHER SUCH AS PRECIPITATION OR FOG.

MTZ001>007-043-290700-
WEST OF THE DIVIDE
CITY           SKY/WX    TMP DP  RH WIND       PRES   REMARKS
KALISPELL      CLOUDY    18   7  62 NE23G33   30.30R WCI   1
MISSOULA       CLOUDY    18   9  68 SE18      30.25R WCI   2
BUTTE          LGT SNOW   7   1  76 NE3       30.13R
* ESSEX        N/A       10   4  76 SE4        N/A
* LINCOLN      N/A        8  -1  66 NE12G20    N/A   WCI  -7
* LOOKOUT PASS N/A       20  18  92 S2         N/A
* POLSON       N/A       17  11  77 N2         N/A
* RONAN APT    CLOUDY    21  19  92 E5         N/A   WCI  14
* SEELEY LAKE  N/A        9   5  84 N/A        N/A
* THOMP F APT  CLOUDY    11   7  84 N11        N/A   WCI  -3
$$

MTZ008-052>055-290700-
SOUTHWEST MONTANA
CITY           SKY/WX    TMP DP  RH WIND       PRES   REMARKS
BOZEMAN        LGT SNOW  10   9  96 N6        30.20R
DILLON         LGT SNOW  10   7  88 NE22G30   30.08R VSB 3    WCI -10
* W YELLOWSTON PTCLDY    11   7  84 N/A        N/A
* THREE FORKS  PTCLDY    14  14 100 N6         N/A   WCI   5
* BOULDER HILL N/A        4  -1  79 N17G22     N/A   WCI -15
* MONIDA PASS  N/A        5   2  87 N/A        N/A
* RAYNOLDS PAS N/A        6 -36  12 VRB12      N/A   WCI -10
* WHITEHALL    N/A       12   5  73 N11G20     N/A   WCI  -2
* WISE RIVER   N/A       11   0  61 E13G18     N/A   WCI  -4
$$

MTZ009>010-012-014-046-048-049-054-290700-
EAST SLOPES AND CENTRAL MONTANA
CITY           SKY/WX    TMP DP  RH WIND       PRES   REMARKS
CUT BANK       LGT SNOW   5   0  80 N23       30.41R VSB 3/4  WCI -17
GREAT FALLS    LGT SNOW   7   3  83 N14       30.38R VSB 1 1/4 WCI -10
HELENA         LGT SNOW  12   7  80 NW10      30.32R VSB 3    WCI  -1
* DEARBORN     N/A       11   6  80 N/A        N/A
* EAST GLACIER N/A        4  -2  76 NE17G24    N/A   WCI -15
* MONARCH      N/A        3  -2  79 NW11       N/A   WCI -13
* PENDROY      N/A        4   2  91 VRB17G26    N/A   WCI -15
* ROGERS PASS  N/A        3  -1  83 S8G14      N/A   WCI -10
* SWEET GRASS  N/A        2  -2  83 N/A        N/A
$$

MTZ011-013-016-021-035-040-045-047-050-051-290700-
NORTH CENTRAL MONTANA
CITY           SKY/WX    TMP DP  RH WIND       PRES   REMARKS
HAVRE          CLOUDY    10   3  73 NE10      30.49R WCI  -4
LEWISTOWN      LGT SNOW   9   5  84 W12       30.31R VSB 2    WCI  -6
* N BAR RANCH  HAZE       9   3  76 NW6       30.28R VSB 3    WCI  -1
* CHESTER      N/A        8   1  73 NE10G16    N/A   WCI  -6
* DENTON       N/A        9   6  87 NW11G16    N/A   WCI  -5
* JUDITH GAP   N/A        7   6  96 N23G28     N/A   WCI -14
* LOMA         N/A       10   5  80 N20        N/A   WCI  -9
$$

MTZ017>020-022>027-061-062-290700-
NORTHEAST MONTANA
CITY           SKY/WX    TMP DP  RH WIND       PRES   REMARKS
GLASGOW        CLOUDY     7  -4  60 NE12      30.50R WCI  -9
GLENDIVE       CLOUDY     7  -2  66 N15       30.41R WCI -10
JORDAN         CLOUDY     9   0  66 NE12      30.42R WCI  -6
SIDNEY         CLOUDY     3  -4  72 N10       30.50R WCI -12
WOLF POINT     CLOUDY     3  -6  66 N14       30.53R WCI -15
* BEAVER HILL  N/A        4   0  83 VRB17      N/A   WCI -15
* CIRCLE       N/A        4  -2  76 NE16       N/A   WCI -15
* LINDSAY DVD  N/A        2  -2  83 N4G11      N/A
* NAVAJO       N/A      -11 -15  82 NW6        N/A   WCI -25
* SACO         N/A        3  -4  72 N17        N/A   WCI -17
$$

MTZ028>042-056>058-290700-
SOUTHCENTRAL AND SOUTHEAST MONTANA
CITY           SKY/WX    TMP DP  RH WIND       PRES   REMARKS
BAKER          LGT SNOW   9   3  76 NE15      30.31R VSB 2    WCI  -8
BILLINGS       LGT SNOW  14  10  84 NE13      30.29R VSB 2
LIVINGSTON     LGT SNOW  12   7  80 E16       30.20R WCI  -5
MILES CITY     LGT SNOW  10   7  88 NE17      30.35R VSB 1 3/4 WCI  -8
* LAUREL APT   MOCLDY    16   5  62 N8         N/A   WCI   5
* ROUNDUP APT  MOCLDY    10   3  73 N13        N/A   WCI  -5
* ALZADA       N/A       16  13  88 NE9        N/A   WCI   5
* HYSHAM       N/A        8   4  84 NE12G17    N/A   WCI  -7
* REED POINT   N/A       15  13  92 SE3        N/A
* ROSCOE HILL  N/A        9   5  84 NE4        N/A
$$

REGIONAL REPORTS...DAKOTAS
CITY           SKY/WX    TMP DP  RH WIND       PRES   REMARKS
WILLISTON      CLEAR     -6 -11  78 N10       30.51R WCI -23
DICKINSON      CLOUDY     5   0  80 NE10      30.35R WCI -10
BEACH          CLOUDY     7   3  83 NE14      30.37R WCI -10
CROSBY         CLEAR     -9 -13  82 NW6       30.53R WCI -23
WATFORD CITY   CLOUDY     0  -6  75 N10       30.45R WCI -16
BISMARCK       CLOUDY     1  -6  72 NE7       30.48R WCI -12
GRAND FORKS    PTCLDY    -8 -11  86 NW8       30.54R WCI -24
FARGO          PTCLDY    -4 -11  71 N9        30.52R WCI -20
BUFFALO SD     PTCLDY     9   3  76 NE16      30.18R WCI  -8
RAPID CITY     LGT SNOW  16  10  77 NE10      30.19R VSB 3    WCI   4
$$

REGIONAL REPORTS...WYOMING/IDAHO/WASHINGTON
CITY           SKY/WX    TMP DP  RH WIND       PRES   REMARKS
GILLETTE       LGT SNOW  18  16  92 N12       30.07R VSB 1 1/2 WCI   5
SHERIDAN       LGT SNOW  14  10  84 NW21      30.20R VSB 2 1/2 WCI  -4
CODY           CLOUDY    12   7  80 N13G18    30.13R WCI  -3
YELLOWSTONE LA MOCLDY     5   1  83 VRB3      29.94S
SALMON         CLOUDY    18  14  84 CALM      30.06S VSB 3
SAND POINT     HAZE      27  19  72 NE22G30   30.22R WCI  13
SPOKANE        LGT SNOW  28  28 100 NE6       30.12R WCI  21

$$




USA.gov is the U.S. government's official web portal to all federal, state and local government web resources and services.